Location: Newark
(46.0000°N, 8.8667°E)
Time: 15:43:50
(UTC+00:00)

X-37B - Visible Passes

Search period start: 01 October 2020 00:00
Search period end: 11 October 2020 00:00
Orbit: 386 x 387 km, 45.0° (Epoch: 18 September)

Date Brightness Start Highest point End Pass type
(mag) Time Alt. Az. Time Alt. Az. Time Alt. Az.
01 Oct 3.1 18:33:52 10° S 18:34:08 11° S 18:34:08 11° S visible
02 Oct 3.3 19:10:21 10° SW 19:10:54 14° SW 19:10:54 14° SW visible
03 Oct 2.0 18:12:18 10° SSW 18:14:49 22° SSE 18:15:15 21° SE visible
04 Oct 1.7 18:49:32 10° WSW 18:51:46 36° SSW 18:51:46 36° SSW visible
05 Oct 1.6 17:51:13 10° SW 17:54:07 33° SSE 17:55:54 18° ESE visible
05 Oct 3.4 19:27:22 10° W 19:28:11 16° WSW 19:28:11 16° WSW visible
06 Oct 0.6 18:28:51 10° WSW 18:31:59 63° S 18:32:15 59° SE visible
07 Oct 1.1 17:30:24 10° WSW 17:33:28 47° SSE 17:36:16 12° E visible
07 Oct 2.5 19:06:49 10° W 19:08:32 29° W 19:08:32 29° W visible
08 Oct 0.5 18:08:14 10° W 18:11:25 74° S 18:12:31 37° E visible
09 Oct 1.4 18:46:14 10° W 18:48:46 50° WSW 18:48:46 50° WSW visible
10 Oct 0.6 17:47:41 10° W 17:50:51 76° S 17:52:44 22° E visible
10 Oct 3.7 19:24:19 10° W 19:25:01 15° W 19:25:01 15° W visible
